Date String (YYYY-MM-DD hh:mm:ss) UTC,Instrument flags,absolute air pressure of the measurement (hPa),sample flow rate (lpm),inlet stack bypass flow (lpm),air temperature of the measurement (°C),ambient temperature measured by the external sensor (°C),aerosol sample conditioner tube jacket temperature (°C),OPC LED temperature (°C),internal box temperature (°C),relative humidity of the measurement (%),span deviation,mass concentration of particles derived from Lorenz-Mie calculation of OPC scattering (μg/m³),mass concentration of particles derived from Lorenz-Mie calculation of OPC scattering (μg/m³),mass concentration of particles derived from Lorenz-Mie calculation of OPC scattering (μg/m³)
DateTimeUTC,F1_M11,P_M11,Q1_M11,Q2_M11,T1_M11,T2_M11,T3_M11,T4_M11,T5_M11,U1_M11,ZSPAN_M11,X2_M11,X0_M11,X1_M11
2023-12-01 07:00:00,SystemResetWarning,0821.9,4.99,000.00,020.4,019.4,000.0,028.7,021.6,15.0,-000.1,0007.11,0011.99,0006.44
2023-12-01 07:01:00,SystemResetWarning,0822.0,4.99,000.00,020.4,019.4,000.0,028.7,021.6,15.0,0000.1,0007.14,0012.50,0006.43
2023-12-01 07:02:00,SystemResetWarning,0822.0,5.01,000.00,020.4,019.4,000.0,028.7,021.6,15.0,0001.3,0007.12,0013.02,0006.41
2023-12-01 07:03:00,SystemResetWarning,0821.9,5.01,000.00,020.4,019.4,000.0,028.7,021.6,15.0,0001.9,0007.11,0012.99,0006.41
2023-12-01 07:04:00,SystemResetWarning,0821.9,5.00,000.00,020.4,019.4,000.0,028.7,021.6,15.0,0002.4,0007.11,0012.96,0006.43
2023-12-01 07:05:00,SystemResetWarning,0821.9,4.98,000.00,020.4,019.4,000.0,028.7,021.6,15.0,0001.4,0007.13,0013.03,0006.44
2023-12-01 07:06:00,SystemResetWarning,0821.9,5.00,000.00,020.4,019.4,000.0,028.7,021.6,15.0,0000.0,0007.15,0013.16,0006.45
2023-12-01 07:07:00,SystemResetWarning,0822.0,5.01,000.00,020.4,019.4,000.0,028.7,021.6,15.0,0000.0,0007.12,0012.39,0006.46
2023-12-01 07:08:00,SystemResetWarning,0822.0,5.01,000.00,020.4,019.4,000.0,028.7,021.6,15.0,0000.0,0007.12,0011.92,0006.47
2023-12-01 07:09:00,SystemResetWarning,0822.0,5.00,000.00,020.4,019.3,000.0,028.7,021.6,15.0,0001.4,0007.12,0012.20,0006.48
2023-12-01 07:10:00,SystemResetWarning,0821.9,4.99,000.00,020.4,019.3,000.0,028.7,021.6,15.0,0000.8,0007.09,0012.64,0006.49
2023-12-01 07:11:00,SystemResetWarning,0821.9,5.00,000.00,020.3,019.3,000.0,028.7,021.6,15.0,0000.2,0007.13,0013.27,0006.50
2023-12-01 07:12:00,SystemResetWarning,0821.9,5.00,000.00,020.3,019.3,000.0,028.7,021.5,15.1,0000.0,0007.13,0012.76,0006.51
2023-12-01 07:13:00,SystemResetWarning,0821.8,4.99,000.00,020.3,019.3,000.0,028.7,021.6,15.1,0000.0,0007.16,0012.41,0006.53
2023-12-01 07:14:00,SystemResetWarning,0821.8,4.99,000.00,020.3,019.3,000.0,028.7,021.5,15.1,0000.0,0007.16,0012.50,0006.52
2023-12-01 07:15:00,SystemResetWarning,0821.9,5.00,000.00,020.3,019.3,000.0,028.7,021.5,15.1,0000.3,0007.14,0012.61,0006.50
2023-12-01 07:16:00,SystemResetWarning,0821.9,5.00,000.00,020.3,019.3,000.0,028.7,021.5,15.1,0002.6,0007.12,0012.69,0006.50
2023-12-01 07:17:00,SystemResetWarning,0821.8,5.01,000.00,020.3,019.3,000.0,028.6,021.4,15.1,0002.5,0007.11,0012.64,0006.51
2023-12-01 07:18:00,SystemResetWarning,0821.9,5.00,000.00,020.3,019.3,000.0,028.6,021.4,15.1,0002.4,0007.12,0013.11,0006.53
2023-12-01 07:19:00,SystemResetWarning,0821.8,5.01,000.00,020.2,019.3,000.0,028.6,021.4,15.0,0002.1,0007.15,0013.66,0006.54
2023-12-01 07:20:00,SystemResetWarning,0821.8,5.01,000.00,020.2,019.3,000.0,028.6,021.3,15.1,0002.0,0007.15,0014.09,0006.56
2023-12-01 07:21:00,SystemResetWarning,0821.8,5.00,000.00,020.2,019.2,000.0,028.6,021.3,15.1,0001.5,0007.14,0013.40,0006.58
2023-12-01 07:22:00,SystemResetWarning,0821.8,5.00,000.00,020.2,019.2,000.0,028.6,021.3,15.1,0001.1,0007.12,0012.99,0006.58
2023-12-01 07:23:00,SystemResetWarning,0821.8,5.00,000.00,020.2,019.2,000.0,028.6,021.3,15.1,0001.6,0007.09,0012.93,0006.58
2023-12-01 07:24:00,SystemResetWarning,0821.8,5.00,000.00,020.2,019.2,000.0,028.6,021.3,15.1,0000.5,0007.11,0012.98,0006.59
2023-12-01 07:25:00,SystemResetWarning,0821.8,5.01,000.00,020.1,019.2,000.0,028.6,021.3,15.1,0000.6,0007.13,0012.89,0006.59
2023-12-01 07:26:00,SystemResetWarning,0821.9,5.00,000.00,020.1,019.2,000.0,028.6,021.2,15.1,0000.9,0007.12,0012.72,0006.60
2023-12-01 07:27:00,SystemResetWarning,0821.9,5.00,000.00,020.1,019.2,000.0,028.5,021.2,15.1,0000.0,0007.16,0012.74,0006.60
2023-12-01 07:28:00,SystemResetWarning,0821.8,4.99,000.00,020.1,019.2,000.0,028.5,021.3,15.1,0000.0,0007.17,0012.74,0006.60
2023-12-01 07:29:00,SystemResetWarning,0821.8,5.00,000.00,020.1,019.2,000.0,028.5,021.3,15.1,0000.0,0007.15,0012.25,0006.58
2023-12-01 07:30:00,SystemResetWarning,0821.8,5.00,000.00,020.1,019.2,000.0,028.5,021.3,15.1,0000.0,0007.14,0011.79,0006.56
2023-12-01 07:31:00,SystemResetWarning,0821.8,5.00,000.00,020.1,019.2,000.0,028.5,021.3,15.1,0000.0,0007.15,0011.29,0006.54
2023-12-01 07:32:00,SystemResetWarning,0821.8,5.01,000.00,020.1,019.2,000.0,028.5,021.3,15.1,0000.0,0007.13,0011.22,0006.52
2023-12-01 07:33:00,SystemResetWarning,0821.7,5.01,000.00,020.1,019.2,000.0,028.5,021.3,15.1,0000.0,0007.13,0010.93,0006.51
2023-12-01 07:34:00,SystemResetWarning,0821.7,5.00,000.00,020.1,019.2,000.0,028.5,021.3,15.1,0000.0,0007.17,0011.08,0006.50
2023-12-01 07:35:00,SystemResetWarning,0821.7,5.00,000.00,020.1,019.2,000.0,028.5,021.3,15.1,0000.0,0007.13,0011.06,0006.49
2023-12-01 07:36:00,SystemResetWarning,0821.7,5.00,000.00,020.1,019.2,000.0,028.5,021.3,15.1,0000.0,0007.09,0010.96,0006.49
2023-12-01 07:37:00,SystemResetWarning,0821.6,5.00,000.00,020.1,019.2,000.0,028.5,021.3,15.2,0000.0,0007.09,0010.93,0006.49
2023-12-01 07:38:00,SystemResetWarning,0821.7,5.00,000.00,020.1,019.2,000.0,028.5,021.3,15.2,0000.0,0007.06,0010.74,0006.48
2023-12-01 07:39:00,SystemResetWarning,0821.6,5.00,000.00,020.1,019.2,000.0,028.5,021.3,15.3,0000.0,0007.07,0010.76,0006.48
2023-12-01 07:40:00,SystemResetWarning,0821.6,5.00,000.00,020.1,019.1,000.0,028.5,021.3,15.3,0000.0,0007.05,0010.59,0006.47
2023-12-01 07:41:00,SystemResetWarning,0821.6,5.00,000.00,020.1,019.1,000.0,028.4,021.3,15.3,0000.0,0007.05,0010.61,0006.46
2023-12-01 07:42:00,SystemResetWarning,0821.5,5.00,000.00,020.1,019.1,000.0,028.4,021.2,15.4,0000.0,0007.02,0010.83,0006.45
2023-12-01 07:43:00,SystemResetWarning,0821.5,4.99,000.00,020.1,019.1,000.0,028.4,021.2,15.4,0000.0,0006.99,0010.69,0006.45
2023-12-01 07:44:00,SystemResetWarning,0821.9,4.99,000.00,020.0,019.1,000.0,028.4,021.1,15.4,0000.0,0007.02,0010.84,0006.45
2023-12-01 07:45:00,SystemResetWarning,0822.0,5.00,000.00,020.0,019.1,000.0,028.4,021.2,15.4,0000.0,0006.99,0010.73,0006.45
2023-12-01 07:46:00,SystemResetWarning,0822.0,5.00,000.00,020.0,019.1,000.0,028.4,021.1,15.4,0000.0,0007.00,0010.88,0006.46
2023-12-01 07:47:00,SystemResetWarning,0821.9,5.01,000.00,020.0,019.1,000.0,028.4,021.1,15.5,0000.0,0007.04,0011.18,0006.45
2023-12-01 07:48:00,SystemResetWarning,0821.6,5.01,000.00,020.0,019.1,000.0,028.4,021.1,15.5,0000.0,0007.06,0011.26,0006.44
2023-12-01 07:49:00,SystemResetWarning,0821.7,5.00,000.00,020.0,019.0,000.0,028.4,021.1,15.5,0000.0,0007.11,0011.46,0006.45
2023-12-01 07:50:00,SystemResetWarning,0821.4,4.99,000.00,019.9,019.0,000.0,028.4,021.1,15.5,0000.0,0007.09,0011.40,0006.45
2023-12-01 07:51:00,SystemResetWarning,0821.4,5.00,000.00,019.9,019.0,000.0,028.4,021.1,15.6,0000.0,0007.13,0012.04,0006.45
2023-12-01 07:52:00,SystemResetWarning,0821.4,5.00,000.00,019.9,019.0,000.0,028.3,021.0,15.6,0000.0,0007.15,0012.42,0006.45
2023-12-01 07:53:00,SystemResetWarning,0821.3,4.99,000.00,019.9,019.0,000.0,028.3,021.0,15.6,0000.0,0007.19,0012.77,0006.46
2023-12-01 07:54:00,SystemResetWarning,0821.3,5.00,000.00,019.9,019.0,000.0,028.3,021.0,15.6,0000.0,0007.24,0013.12,0006.47
2023-12-01 07:55:00,SystemResetWarning,0821.3,5.01,000.00,019.9,019.0,000.0,028.3,021.0,15.6,0000.0,0007.26,0013.58,0006.47
2023-12-01 07:56:00,SystemResetWarning,0821.2,5.00,000.00,019.9,019.0,000.0,028.3,021.0,15.7,0000.0,0007.22,0013.70,0006.46
2023-12-01 07:57:00,SystemResetWarning,0821.2,5.00,000.00,019.8,019.0,000.0,028.3,021.0,15.7,0000.0,0007.19,0013.57,0006.45
2023-12-01 07:58:00,SystemResetWarning,0821.2,4.99,000.00,019.8,019.0,000.0,028.3,021.0,15.7,0000.0,0007.15,0013.26,0006.44
2023-12-01 07:59:00,SystemResetWarning,0821.2,4.99,000.00,019.8,018.9,000.0,028.3,021.0,15.7,0000.0,0007.11,0013.34,0006.45
